,,Stat5,,Stat1,,Stat2,,Stat3,,Stat4,,Wind1,,Wind1,
time,status,PA1M_AVG,status,PR1M_SUM,status,RH1M_AVG,status,SR1M_AVG,status,TA1M_AVG,status,W1dAve1m,status,W1sAve1m,
2002-08-25, 07:12:00,VALID,918.532,VALID,0,VALID,99.2869,VALID,130.294,VALID,19.9072,VALID,67,VALID,0.000381098,
2002-08-25, 07:13:00,VALID,918.532,VALID,0,VALID,99.2843,VALID,149.431,VALID,19.9236,VALID,65,VALID,0.0951172,
2002-08-25, 07:14:00,VALID,918.524,VALID,0,VALID,99.2843,VALID,184.751,VALID,19.946,VALID,42,VALID,0.50686,
2002-08-25, 07:15:00,VALID,918.534,VALID,0,VALID,99.3021,VALID,172.152,VALID,20.0555,VALID,22,VALID,0.467516,
2002-08-25, 07:16:00,VALID,918.547,VALID,0,VALID,99.2958,VALID,112.736,VALID,20.1492,VALID,32,VALID,0.2481,
2002-08-25, 07:17:00,VALID,918.586,VALID,0,VALID,99.2767,VALID,229.836,VALID,20.2205,VALID,32,VALID,0,
2002-08-25, 07:18:00,VALID,918.614,VALID,0,VALID,99.264,VALID,151.18,VALID,20.3202,VALID,32,VALID,0,
2002-08-25, 07:19:00,VALID,918.636,VALID,0,VALID,99.2297,VALID,238.717,VALID,20.3624,VALID,32,VALID,0.0716797,
2002-08-25, 07:20:00,VALID,918.626,VALID,0,VALID,99.203,VALID,253.846,VALID,20.3977,VALID,32,VALID,0.167969,
2002-08-25, 07:21:00,VALID,918.622,VALID,0,VALID,99.1724,VALID,252.08,VALID,20.4553,VALID,32,VALID,0.134983,
2002-08-25, 07:22:00,VALID,918.63,VALID,0,VALID,99.1356,VALID,207.268,VALID,20.591,VALID,35,VALID,0.129123,
2002-08-25, 07:23:00,VALID,918.623,VALID,0,VALID,99.0733,VALID,166.582,VALID,20.724,VALID,17,VALID,0.649282,
2002-08-25, 07:24:00,VALID,918.641,VALID,0,VALID,98.7948,VALID,142.028,VALID,20.7423,VALID,7,VALID,0.819164,
2002-08-25, 07:25:00,VALID,918.63,VALID,0,VALID,98.0369,VALID,122.873,VALID,20.7361,VALID,28,VALID,1.04407,
2002-08-25, 07:26:00,VALID,918.653,VALID,0,VALID,97.5333,VALID,113.381,VALID,20.7488,VALID,21,VALID,1.01714,
2002-08-25, 07:27:00,VALID,918.675,VALID,0,VALID,97.045,VALID,108.813,VALID,20.7563,VALID,18,VALID,1.00452,
2002-08-25, 07:28:00,VALID,918.695,VALID,0,VALID,96.6572,VALID,104.975,VALID,20.7601,VALID,25,VALID,1.29441,
2002-08-25, 07:29:00,VALID,918.709,VALID,0,VALID,95.706,VALID,93.038,VALID,20.6661,VALID,40,VALID,1.52715,
2002-08-25, 07:30:00,VALID,918.716,VALID,0,VALID,95.3411,VALID,90.9663,VALID,20.5092,VALID,47,VALID,1.21567,
2002-08-25, 07:31:00,VALID,918.73,VALID,0,VALID,95.4314,VALID,88.6739,VALID,20.4029,VALID,71,VALID,0.696957,
2002-08-25, 07:32:00,VALID,918.738,VALID,0,VALID,95.8001,VALID,92.0361,VALID,20.3154,VALID,42,VALID,0.997889,
2002-08-25, 07:33:00,VALID,918.744,VALID,0,VALID,96.1562,VALID,125.183,VALID,20.2505,VALID,50,VALID,0.986762,
2002-08-25, 07:34:00,VALID,918.765,VALID,0,VALID,96.6903,VALID,151.809,VALID,20.2637,VALID,18,VALID,0.815717,
2002-08-25, 07:35:00,VALID,918.804,VALID,0,VALID,97.2218,VALID,156.173,VALID,20.3348,VALID,11,VALID,0.703125,
2002-08-25, 07:36:00,VALID,918.829,VALID,0,VALID,97.396,VALID,151.146,VALID,20.3854,VALID,8,VALID,0.508614,
2002-08-25, 07:37:00,VALID,918.859,VALID,0,VALID,97.2091,VALID,129.428,VALID,20.418,VALID,354,VALID,1.22213,
2002-08-25, 07:38:00,VALID,918.87,VALID,0,VALID,96.5453,VALID,110.936,VALID,20.3278,VALID,347,VALID,1.10053,
2002-08-25, 07:39:00,VALID,918.895,VALID,0,VALID,96.3851,VALID,131.941,VALID,20.2694,VALID,7,VALID,1.125,
2002-08-25, 07:40:00,VALID,918.904,VALID,0,VALID,96.7055,VALID,152.148,VALID,20.2632,VALID,26,VALID,1.2488,
2002-08-25, 07:41:00,VALID,918.919,VALID,0,VALID,97.1315,VALID,141.943,VALID,20.3308,VALID,5,VALID,1.05798,
2002-08-25, 07:42:00,VALID,918.913,VALID,0,VALID,96.7004,VALID,100.204,VALID,20.3015,VALID,337,VALID,0.904297,
2002-08-25, 07:43:00,VALID,918.904,VALID,0,VALID,96.8022,VALID,99.3379,VALID,20.292,VALID,11,VALID,0.990921,
2002-08-25, 07:44:00,VALID,918.904,VALID,0,VALID,96.8797,VALID,104.279,VALID,20.2953,VALID,342,VALID,0.897321,
2002-08-25, 07:45:00,VALID,918.922,VALID,0,VALID,96.8963,VALID,105.655,VALID,20.2821,VALID,6,VALID,0.826069,
2002-08-25, 07:46:00,VALID,918.929,VALID,0,VALID,97.087,VALID,104.891,VALID,20.334,VALID,8,VALID,0.922931,
2002-08-25, 07:47:00,VALID,918.949,VALID,0,VALID,96.6254,VALID,121.311,VALID,20.2853,VALID,14,VALID,1.59014,
2002-08-25, 07:48:00,VALID,918.967,VALID,0,VALID,96.7653,VALID,106.572,VALID,20.2662,VALID,23,VALID,1.24472,
2002-08-25, 07:49:00,VALID,919.001,VALID,0,VALID,97.0171,VALID,117.728,VALID,20.3055,VALID,10,VALID,0.807617,
2002-08-25, 07:50:00,VALID,919.034,VALID,0,VALID,97.1442,VALID,120.241,VALID,20.3569,VALID,16,VALID,0.857113,
2002-08-25, 07:51:00,VALID,919.059,VALID,0,VALID,96.9103,VALID,100.068,VALID,20.3467,VALID,356,VALID,1.06879,
2002-08-25, 07:52:00,VALID,919.086,VALID,0,VALID,96.6648,VALID,100.017,VALID,20.3055,VALID,301,VALID,0.595052,
2002-08-25, 07:53:00,VALID,919.115,VALID,0,VALID,96.5974,VALID,110.053,VALID,20.263,VALID,7,VALID,0.908717,
2002-08-25, 07:54:00,VALID,919.11,VALID,0,VALID,96.984,VALID,120.139,VALID,20.3089,VALID,22,VALID,1.40951,
2002-08-25, 07:55:00,VALID,919.123,VALID,0,VALID,97.307,VALID,151.656,VALID,20.3564,VALID,6,VALID,1.22809,
2002-08-25, 07:56:00,VALID,919.119,VALID,0,VALID,96.731,VALID,122.907,VALID,20.3114,VALID,1,VALID,1.36465,
2002-08-25, 07:57:00,VALID,919.147,VALID,0,VALID,96.9929,VALID,134.539,VALID,20.334,VALID,15,VALID,1.60752,
2002-08-25, 07:58:00,VALID,919.162,VALID,0,VALID,96.8225,VALID,132.96,VALID,20.331,VALID,16,VALID,1.85115,
2002-08-25, 07:59:00,VALID,919.166,VALID,0,VALID,97.0552,VALID,135.796,VALID,20.3405,VALID,22,VALID,1.85488,
2002-08-25, 08:00:00,VALID,919.197,VALID,0,VALID,96.8988,VALID,147.088,VALID,20.3372,VALID,9,VALID,1.63713,
2002-08-25, 08:01:00,VALID,919.222,VALID,0,VALID,96.9014,VALID,150.026,VALID,20.3407,VALID,13,VALID,1.52693,
2002-08-25, 08:02:00,VALID,919.243,VALID,0,VALID,96.5415,VALID,141.314,VALID,20.289,VALID,14,VALID,1.96791,
2002-08-25, 08:03:00,VALID,919.249,VALID,0,VALID,96.5873,VALID,149.058,VALID,20.254,VALID,11,VALID,1.40929,
2002-08-25, 08:04:00,VALID,919.273,VALID,0,VALID,96.7538,VALID,137.035,VALID,20.2376,VALID,359,VALID,1.16475,
2002-08-25, 08:05:00,VALID,919.273,VALID,0,VALID,96.806,VALID,139.667,VALID,20.2239,VALID,3,VALID,1.02949,
2002-08-25, 08:06:00,VALID,919.282,VALID,0,VALID,96.764,VALID,136.713,VALID,20.2113,VALID,13,VALID,0.826923,
2002-08-25, 08:07:00,VALID,919.29,VALID,0,VALID,96.7513,VALID,144.422,VALID,20.2148,VALID,22,VALID,0.690878,
2002-08-25, 08:08:00,VALID,919.302,VALID,0,VALID,96.8823,VALID,148.209,VALID,20.2433,VALID,346,VALID,0.593133,
2002-08-25, 08:09:00,VALID,919.3,VALID,0,VALID,96.9319,VALID,153.286,VALID,20.2689,VALID,3,VALID,0.558499,
2002-08-25, 08:10:00,VALID,919.287,VALID,0,VALID,97.1493,VALID,155.443,VALID,20.3534,VALID,17,VALID,0.471834,
2002-08-25, 08:11:00,VALID,919.294,VALID,0,VALID,96.8607,VALID,159.722,VALID,20.3949,VALID,16,VALID,1.03701,
2002-08-25, 08:12:00,VALID,919.288,VALID,0,VALID,96.7805,VALID,154.712,VALID,20.4223,VALID,360,VALID,0.913845,
2002-08-25, 08:13:00,VALID,919.297,VALID,0,VALID,97.0018,VALID,144.099,VALID,20.4871,VALID,9,VALID,0.0783361,
2002-08-25, 08:14:00,VALID,919.304,VALID,0,VALID,96.8441,VALID,151.792,VALID,20.5227,VALID,281,VALID,0.349777,
2002-08-25, 08:15:00,VALID,919.302,VALID,0,VALID,96.3902,VALID,157.141,VALID,20.5165,VALID,242,VALID,0.680099,
2002-08-25, 08:16:00,VALID,919.293,VALID,0,VALID,95.9566,VALID,156.088,VALID,20.4578,VALID,246,VALID,0.84375,
2002-08-25, 08:17:00,VALID,919.287,VALID,0,VALID,95.8968,VALID,161.471,VALID,20.4389,VALID,258,VALID,0.514022,
2002-08-25, 08:18:00,VALID,919.295,VALID,0,VALID,96.0125,VALID,185.685,VALID,20.4416,VALID,251,VALID,0.319468,
2002-08-25, 08:19:00,VALID,919.31,VALID,0,VALID,96.1346,VALID,195.67,VALID,20.4672,VALID,249,VALID,0.242188,
2002-08-25, 08:20:00,VALID,919.319,VALID,0,VALID,96.3673,VALID,277.212,VALID,20.5614,VALID,248,VALID,0.0495477,
2002-08-25, 08:21:00,VALID,919.33,VALID,0,VALID,96.1816,VALID,200.815,VALID,20.6325,VALID,254,VALID,0.26237,
2002-08-25, 08:22:00,VALID,919.346,VALID,0,VALID,95.9311,VALID,402.802,VALID,20.6834,VALID,254,VALID,0.28342,
2002-08-25, 08:23:00,VALID,919.36,VALID,0,VALID,95.8243,VALID,413.755,VALID,20.7938,VALID,255,VALID,0.435238,
2002-08-25, 08:24:00,VALID,919.36,VALID,0,VALID,95.4314,VALID,514.366,VALID,20.9101,VALID,255,VALID,0.221571,
2002-08-25, 08:25:00,VALID,919.391,VALID,0,VALID,95.1949,VALID,524.283,VALID,21.0622,VALID,243,VALID,0.120046,
2002-08-25, 08:26:00,VALID,919.416,VALID,0,VALID,95.0474,VALID,504.976,VALID,21.3201,VALID,296,VALID,0.195313,
2002-08-25, 08:27:00,VALID,919.435,VALID,0,VALID,93.4299,VALID,517.627,VALID,21.5331,VALID,302,VALID,0.368627,
2002-08-25, 08:28:00,VALID,919.455,VALID,0,VALID,91.5199,VALID,534.845,VALID,21.7168,VALID,249,VALID,0.529605,
2002-08-25, 08:29:00,VALID,919.479,VALID,0,VALID,89.7486,VALID,540.228,VALID,21.8587,VALID,246,VALID,0.345313,
2002-08-25, 08:30:00,VALID,919.496,VALID,0,VALID,89.8935,VALID,528.562,VALID,22.0852,VALID,298,VALID,0.211554,
2002-08-25, 08:31:00,VALID,919.512,VALID,0,VALID,87.33,VALID,447.564,VALID,22.2494,VALID,316,VALID,0.687089,
2002-08-25, 08:32:00,VALID,919.521,VALID,0,VALID,86.0635,VALID,363.831,VALID,22.2721,VALID,296,VALID,0.514992,
2002-08-25, 08:33:00,VALID,919.502,VALID,0,VALID,85.4671,VALID,229.292,VALID,22.2656,VALID,274,VALID,0.625,
2002-08-25, 08:34:00,VALID,919.495,VALID,0,VALID,85.9783,VALID,248.531,VALID,22.2125,VALID,307,VALID,0.782858,
2002-08-25, 08:35:00,VALID,919.495,VALID,0,VALID,85.3387,VALID,248.956,VALID,22.1071,VALID,280,VALID,0.789453,
2002-08-25, 08:36:00,VALID,919.514,VALID,0,VALID,86.5174,VALID,209.832,VALID,22.046,VALID,246,VALID,0.458734,
2002-08-25, 08:37:00,VALID,919.526,VALID,0,VALID,86.361,VALID,228.426,VALID,21.9973,VALID,246,VALID,0.420397,
2002-08-25, 08:38:00,VALID,919.521,VALID,0,VALID,86.3814,VALID,220.173,VALID,21.9135,VALID,293,VALID,0.695929,
2002-08-25, 08:39:00,VALID,919.511,VALID,0,VALID,87.5271,VALID,222.585,VALID,21.8096,VALID,282,VALID,0.518483,
2002-08-25, 08:40:00,VALID,919.496,VALID,0,VALID,88.0078,VALID,239.684,VALID,21.8123,VALID,244,VALID,0.583676,
2002-08-25, 08:41:00,VALID,919.494,VALID,0,VALID,87.6136,VALID,242.758,VALID,21.7829,VALID,266,VALID,0.530016,
2002-08-25, 08:42:00,VALID,919.497,VALID,0,VALID,87.536,VALID,213.058,VALID,21.7884,VALID,285,VALID,0.342448,
2002-08-25, 08:43:00,VALID,919.503,VALID,0,VALID,87.3236,VALID,207.404,VALID,21.8239,VALID,285,VALID,0.253378,
2002-08-25, 08:44:00,VALID,919.502,VALID,0,VALID,87.7547,VALID,233.554,VALID,21.8786,VALID,281,VALID,0.374107,
2002-08-25, 08:45:00,VALID,919.507,VALID,0,VALID,87.8005,VALID,330.804,VALID,21.9135,VALID,278,VALID,0.342928,
2002-08-25, 08:46:00,VALID,919.509,VALID,0,VALID,88.023,VALID,362.863,VALID,21.9752,VALID,275,VALID,0.250422,
2002-08-25, 08:47:00,VALID,919.488,VALID,0,VALID,87.5843,VALID,351.232,VALID,22.0428,VALID,275,VALID,0.226563,
2002-08-25, 08:48:00,VALID,919.476,VALID,0,VALID,87.6504,VALID,342.096,VALID,22.1362,VALID,277,VALID,0.0827703,
2002-08-25, 08:49:00,VALID,919.472,VALID,0,VALID,87.6988,VALID,274.597,VALID,22.3177,VALID,296,VALID,0.270312,
2002-08-25, 08:50:00,VALID,919.481,VALID,0,VALID,85.963,VALID,284.378,VALID,22.3921,VALID,278,VALID,0.318051,
2002-08-25, 08:51:00,VALID,919.509,VALID,0,VALID,86.1016,VALID,344.881,VALID,22.4467,VALID,269,VALID,0.31467,
2002-08-25, 08:52:00,VALID,919.541,VALID,0,VALID,86.3318,VALID,351.775,VALID,22.5337,VALID,257,VALID,0.233507,
2002-08-25, 08:53:00,VALID,919.575,VALID,0,VALID,84.6342,VALID,269.893,VALID,22.5657,VALID,277,VALID,0.542558,
2002-08-25, 08:54:00,VALID,919.58,VALID,0,VALID,84.165,VALID,239.09,VALID,22.4397,VALID,290,VALID,0.650174,
2002-08-25, 08:55:00,VALID,919.589,VALID,0,VALID,84.6444,VALID,280.523,VALID,22.3293,VALID,296,VALID,0.594512,
2002-08-25, 08:56:00,VALID,919.595,VALID,0,VALID,84.7639,VALID,254.152,VALID,22.2649,VALID,292,VALID,0.642948,
2002-08-25, 08:57:00,VALID,919.601,VALID,0,VALID,85.7685,VALID,261.692,VALID,22.2375,VALID,299,VALID,0.455387,
2002-08-25, 08:58:00,VALID,919.605,VALID,0,VALID,85.8206,VALID,284.853,VALID,22.2534,VALID,300,VALID,0.397821,
2002-08-25, 08:59:00,VALID,919.606,VALID,0,VALID,84.7563,VALID,343.064,VALID,22.2402,VALID,291,VALID,0.388672,
2002-08-25, 09:00:00,VALID,919.62,VALID,0,VALID,85.3285,VALID,434.472,VALID,22.3436,VALID,277,VALID,0.281044,
2002-08-25, 09:01:00,VALID,919.633,VALID,0,VALID,84.3633,VALID,446.086,VALID,22.5052,VALID,260,VALID,0.223684,
2002-08-25, 09:02:00,VALID,919.636,VALID,0,VALID,84.8694,VALID,457.209,VALID,22.6706,VALID,257,VALID,0.569257,
2002-08-25, 09:03:00,VALID,919.614,VALID,0,VALID,83.2278,VALID,478.112,VALID,22.7605,VALID,247,VALID,0.903429,
2002-08-25, 09:04:00,VALID,919.623,VALID,0,VALID,82.2372,VALID,488.657,VALID,22.7602,VALID,252,VALID,0.707031,
2002-08-25, 09:05:00,VALID,919.612,VALID,0,VALID,82.386,VALID,447.937,VALID,22.7685,VALID,278,VALID,0.529102,
2002-08-25, 09:06:00,VALID,919.616,VALID,0,VALID,82.1279,VALID,443.845,VALID,22.8942,VALID,296,VALID,0.518229,
2002-08-25, 09:07:00,VALID,919.621,VALID,0,VALID,81.1322,VALID,458.482,VALID,22.9876,VALID,299,VALID,0.552365,
2002-08-25, 09:08:00,VALID,919.618,VALID,0,VALID,80.8117,VALID,465.682,VALID,22.9841,VALID,324,VALID,0.884663,
2002-08-25, 09:09:00,VALID,919.634,VALID,0,VALID,82.0477,VALID,475.378,VALID,23.0032,VALID,358,VALID,0.827363,
2002-08-25, 09:10:00,VALID,919.638,VALID,0,VALID,82.6492,VALID,476.024,VALID,23.191,VALID,21,VALID,1.43935,
2002-08-25, 09:11:00,VALID,919.617,VALID,0,VALID,82.9976,VALID,499.423,VALID,23.3626,VALID,11,VALID,1.81476,
